KTXEAGLE7 Weather Reports


time (UTC)temp
C
wind
direction
speed
KPH
gust
KPH
rain 1hr
cm
rain 24hr
cm
rain mn
cm
humidity
%
barometer
mb
20260506184537 27 169 4.8 6.4 0.00 0.00 0.00 88 1010.0
20260506183030 26 150 1.6 12.9 0.00 0.00 0.00 90 1010.2
20260506181536 26 80 4.8 11.3 0.00 0.00 0.00 93 1010.5
20260506180026 26 67 1.6 6.4 0.00 0.00 0.00 92 1010.7
20260506174523 25 83 8.0 11.3 0.00 0.00 0.00 94 1010.9
20260506173023 25 92 4.8 12.9 0.00 0.00 0.00 94 1011.2
20260506171527 25 93 4.8 11.3 0.00 0.00 0.00 94 1011.3
20260506170027 25 126 8.0 14.5 0.00 0.00 0.00 93 1011.4
20260506164541 25 121 4.8 11.3 0.00 0.00 0.00 92 1011.3
20260506163022 26 125 8.0 14.5 0.00 0.00 0.00 92 1011.2
20260506161522 25 124 12.9 16.1 0.00 0.00 0.00 93 1011.0
20260506160017 25 119 11.3 17.7 0.00 0.00 0.00 92 1010.7
20260506154515 25 133 6.4 14.5 0.00 0.00 0.00 93 1010.8
20260506153013 25 147 6.4 12.9 0.00 0.00 0.00 93 1010.8
20260506151514 25 124 6.4 12.9 0.00 0.00 0.00 94 1010.3
20260506150008 25 132 12.9 17.7 0.00 0.00 0.00 94 1010.2
20260506144511 25 130 8.0 16.1 0.00 0.00 0.00 95 1010.2
20260506143006 24 125 11.3 24.1 0.00 0.00 0.00 96 1009.9
20260506141511 24 140 11.3 19.3 0.00 0.00 0.00 97 1009.8
20260506140002 23 121 12.9 16.1 0.00 0.00 0.00 98 1009.7
20260506134502 23 121 11.3 16.1 0.00 0.00 0.00 98 1009.8
20260506133003 23 123 9.7 17.7 0.00 0.00 0.00 98 1009.9
20260506131502 23 117 9.7 16.1 0.00 0.00 0.00 99 1009.9
20260506130000 23 118 8.0 16.1 0.00 0.00 0.00 99 1009.9
20260506124601 23 119 11.3 17.7 0.00 0.00 0.00 99 1009.8
20260506123100 23 133 8.0 14.5 0.00 0.00 0.00 99 1009.7
20260506121601 23 148 9.7 16.1 0.00 0.00 0.00 99 1009.6
20260506120110 23 136 8.0 14.5 0.00 0.00 0.00 98 1009.4
20260506114559 23 151 8.0 12.9 0.00 0.00 0.00 98 1009.4
20260506113058 23 153 6.4 12.9 0.00 0.00 0.00 98 1009.3
20260506111557 23 138 8.0 14.5 0.00 0.00 0.00 98 1009.0
20260506110112 23 152 9.7 16.1 0.00 0.00 0.00 98 1008.9
20260506104611 23 156 11.3 17.7 0.00 0.00 0.00 99 1008.9
20260506103052 23 150 11.3 16.1 0.00 0.00 0.00 99 1008.7
20260506101552 23 153 9.7 14.5 0.00 0.00 0.00 98 1008.8
20260506100058 23 170 6.4 11.3 0.00 0.00 0.00 98 1008.8
20260506094555 23 142 4.8 11.3 0.00 0.00 0.00 98 1008.8
20260506093046 23 148 8.0 12.9 0.00 0.00 0.00 98 1008.8
20260506091545 23 144 8.0 12.9 0.00 0.00 0.00 98 1008.7
20260506090043 23 144 6.4 11.3 0.00 0.00 0.00 98 1008.8
20260506084613 23 138 1.6 6.4 0.00 0.00 0.00 98 1009.1
20260506083043 23 138 1.6 11.3 0.00 0.00 0.00 98 1009.0
20260506081551 23 153 4.8 9.7 0.00 0.00 0.00 98 1008.8
20260506073037 23 192 9.7 17.7 0.00 0.00 0.00 97 1009.1
20260506071536 23 159 9.7 16.1 0.00 0.00 0.00 97 1009.4
20260506061529 23 170 9.7 19.3 0.00 0.00 0.00 96 1009.7
20260506044521 24 152 6.4 12.9 0.00 0.00 0.00 95 1009.8
20260506043020 24 143 4.8 9.7 0.00 0.00 0.00 95 1009.9
20260506041519 24 150 4.8 14.5 0.00 0.00 0.00 94 1009.8
20260506040019 24 144 11.3 19.3 0.00 0.00 0.00 94 1009.6
20260506034520 24 152 8.0 17.7 0.00 0.00 0.00 94 1009.6
20260506033018 24 135 9.7 16.1 0.00 0.00 0.00 94 1009.3
20260506031518 24 135 8.0 19.3 0.00 0.00 0.00 93 1008.9
20260506030017 24 170 12.9 24.1 0.00 0.00 0.00 93 1008.6
20260506024517 24 157 9.7 22.5 0.00 0.00 0.00 91 1008.6
20260506023031 25 170 11.3 17.7 0.00 0.00 0.00 91 1008.6
20260506021531 25 164 11.3 22.5 0.00 0.00 0.00 91 1008.5
20260506020014 25 162 9.7 19.3 0.00 0.00 0.00 91 1008.1
20260506014518 25 161 6.4 14.5 0.00 0.00 0.00 91 1007.9
20260506013015 25 162 8.0 14.5 0.00 0.00 0.00 90 1007.7
20260506011514 25 163 8.0 19.3 0.00 0.00 0.00 90 1007.6
20260506010014 25 157 11.3 19.3 0.00 0.00 0.00 89 1007.3
20260506004513 25 172 8.0 16.1 0.00 0.00 0.00 88 1007.3
20260506003014 25 160 12.9 24.1 0.00 0.00 0.00 87 1007.1
20260506001511 26 169 12.9 22.5 0.00 0.00 0.00 86 1007.0
20260506000012 26 151 9.7 27.4 0.00 0.00 0.00 86 1007.0
20260505234513 26 167 16.1 29.0 0.00 0.00 0.00 85 1006.9
20260505233009 26 188 16.1 33.8 0.00 0.00 0.00 84 1006.8
20260505231514 26 152 19.3 37.0 0.00 0.00 0.00 84 1006.8
20260505230020 26 178 19.3 37.0 0.00 0.00 0.00 84 1006.8
20260505224512 26 169 17.7 35.4 0.00 0.00 0.00 83 1006.8
20260505223006 26 185 16.1 32.2 0.00 0.00 0.00 84 1007.0
20260505221506 26 178 22.5 35.4 0.00 0.00 0.00 84 1007.1
20260505220004 26 149 16.1 30.6 0.00 0.00 0.00 85 1007.2
20260505214502 26 172 14.5 27.4 0.00 0.00 0.00 85 1007.6
20260505213101 26 189 20.9 33.8 0.00 0.00 0.00 84 1007.7
20260505211600 26 167 24.1 33.8 0.00 0.00 0.00 84 1007.7
20260505210058 26 184 19.3 35.4 0.00 0.00 0.00 84 1007.9
20260505204555 26 187 22.5 35.4 0.00 0.00 0.00 85 1008.2
20260505203112 26 196 27.4 40.2 0.00 0.00 0.00 84 1008.4
20260505201600 26 168 22.5 35.4 0.00 0.00 0.00 85 1008.7
20260505200054 26 180 20.9 33.8 0.00 0.00 0.00 86 1009.0
20260505194549 26 173 19.3 32.2 0.00 0.00 0.00 86 1008.9
20260505193048 26 183 19.3 30.6 0.00 0.00 0.00 87 1009.2
20260505191552 26 194 19.3 30.6 0.00 0.00 0.00 87 1009.3
20260505190044 26 184 16.1 24.1 0.00 0.00 0.00 88 1009.4